Location: Las Vegas
(36.1750°N, 115.1360°W)
Time: 21:02:59
(UTC-08:00)

Amateur Radio Satellites - All Passes

Search period start: 23 January 2017 20:32
Search period end: 24 January 2017 20:32
Location: Las Vegas, 36.1750°N, 115.1360°W

Satellite Date Start Highest point End Downlink Frequencies (MHz)
Time Altitude Azimuth
STRAND 1 23 Jan 20:44:17 20:46:02 12° 298° (WNW) 20:47:48 437.568
ISS 23 Jan 20:49:13 20:52:13 33° 325° (NW) 20:55:12 145.825
FUNcube-1 23 Jan 20:53:03 20:55:57 18° 266° (W) 20:58:52 145.935
HUMSAT D 23 Jan 20:53:32 20:57:35 65° 76° (ENE) 21:01:43 437.325/437.525
UNISAT 6 23 Jan 20:55:01 20:58:16 19° 95° (E) 21:01:33 437.425
PRISM 23 Jan 20:56:11 21:00:15 65° 101° (E) 21:04:17 437.425
TIGRISAT 23 Jan 21:06:47 21:10:27 24° 96° (E) 21:14:09 435.000
ESTCUBE 1 23 Jan 21:14:34 21:17:01 15° 66° (ENE) 21:19:28 437.505/2401.250
AO-85 23 Jan 21:14:50 21:18:32 40° 56° (ENE) 21:22:15 145.980
JAS-2 23 Jan 21:15:48 21:20:51 19° 91° (E) 21:25:59 435.910
ANTELSAT 23 Jan 21:22:35 21:26:49 39° 98° (E) 21:31:06 437.575/2403.000
RS-15 23 Jan 21:31:10 21:41:57 45° 107° (ESE) 21:53:09 29.354- 29.394
CUBEBUG 1 23 Jan 21:44:50 21:47:44 17° 67° (ENE) 21:50:38 437.445
DELFI C3 23 Jan 21:56:17 21:57:28 11° 268° (W) 21:58:39 145.870
BY70-1 23 Jan 22:09:31 22:12:29 54° 260° (W) 22:15:40 436.1900
AISAT 23 Jan 22:11:04 22:14:29 22° 69° (ENE) 22:17:54 437.250
NANOSAT C BR1 23 Jan 22:17:15 22:18:33 11° 92° (E) 22:19:51 145.865
UNISAT 6 23 Jan 22:30:57 22:35:00 34° 288° (WNW) 22:39:08 437.425
50 SAT 23 Jan 22:34:28 22:37:20 23° 71° (ENE) 22:40:13 437.505
SPROUT 23 Jan 22:42:52 22:46:40 33° 72° (ENE) 22:50:28 437.525
VELOX 1 23 Jan 22:43:12 22:47:28 48° 73° (ENE) 22:51:45 145.980
TIGRISAT 23 Jan 22:43:16 22:47:03 27° 290° (WNW) 22:50:54 435.000
ESTCUBE 1 23 Jan 22:48:59 22:53:22 49° 260° (W) 22:57:47 437.505/2401.250
UKube-1 23 Jan 22:54:28 22:57:43 21° 68° (ENE) 23:00:58 .
PHONESAT 2.4 23 Jan 22:55:19 22:57:16 27° 151° (SSE) 22:59:14 2401.200-2431.200
PCSat 23 Jan 22:55:30 23:00:44 53° 112° (ESE) 23:05:59 145.827
AO-85 23 Jan 22:56:45 22:58:31 13° 251° (WSW) 23:00:17 145.980
JAS-2 23 Jan 22:58:49 23:06:16 79° 286° (WNW) 23:14:08 435.910
ANTELSAT 23 Jan 23:00:12 23:03:12 18° 292° (WNW) 23:06:14 437.575/2403.000
DX 1 23 Jan 23:02:26 23:06:26 36° 72° (ENE) 23:10:27 434.975-435.025
QB50P1 23 Jan 23:09:36 23:13:45 55° 100° (E) 23:17:55 145.935-145.965
POLYITAN 1 23 Jan 23:15:00 23:19:14 65° 101° (E) 23:23:27 437.675
QB50P2 23 Jan 23:16:24 23:20:38 74° 101° (E) 23:24:53 145.880/145.840
CUBEBUG 1 23 Jan 23:19:37 23:23:42 37° 262° (W) 23:27:47 437.445
BEESAT 3 23 Jan 23:24:40 23:28:17 32° 55° (NE) 23:31:53 437.485
POPSAT HIP 1 23 Jan 23:36:54 23:41:07 69° 284° (WNW) 23:45:20 437.405
DUCHIFAT 1 23 Jan 23:42:38 23:46:50 69° 284° (WNW) 23:51:01 145.980
RS-15 23 Jan 23:42:39 23:54:10 54° 309° (NW) 00:06:12 29.354- 29.394
YUBILEINY 23 Jan 23:43:34 23:51:28 35° 74° (ENE) 23:59:15 435.215
AISAT 23 Jan 23:46:54 23:50:45 29° 263° (W) 23:54:37 437.250
NANOSAT C BR1 23 Jan 23:50:26 23:54:30 50° 286° (WNW) 23:58:35 145.865
AIST 1 23 Jan 23:55:17 23:59:24 46° 80° (E) 00:03:28
TISAT 1 23 Jan 23:56:48 00:00:26 30° 71° (ENE) 00:04:06 437.305
BUGSAT 1 24 Jan 00:00:55 00:04:57 62° 101° (E) 00:09:00 437.445
50 SAT 24 Jan 00:08:05 00:10:28 17° 265° (W) 00:12:53 437.505
BEESAT 2 24 Jan 00:17:59 00:21:57 52° 58° (ENE) 00:25:53 435.950
SPROUT 24 Jan 00:19:47 00:22:38 17° 266° (W) 00:25:29 437.525
VELOX 1 24 Jan 00:22:02 00:24:08 13° 267° (W) 00:26:15 145.980
Cosmos 2504 24 Jan 00:23:35 00:29:47 29° 73° (ENE) 00:35:51 435.465 / 435.565
ITUPSAT 1 24 Jan 00:25:31 00:27:48 13° 64° (ENE) 00:30:04 437.325
Gurwin Techsat 1B 24 Jan 00:25:42 00:28:35 15° 92° (E) 00:31:27 435.225
PHONESAT 2.4 24 Jan 00:28:52 00:30:59 38° 347° (NNW) 00:33:05 2401.200-2431.200
UKube-1 24 Jan 00:29:47 00:33:33 29° 263° (W) 00:37:19 .
Cosmos 2491 24 Jan 00:30:40 00:38:31 40° 87° (E) 00:46:25 435.465 / 435.565
DX 1 24 Jan 00:39:52 00:42:42 17° 266° (W) 00:45:33 434.975-435.025
PCSat 24 Jan 00:40:24 00:44:25 21° 309° (NW) 00:48:29 145.827
JAS-2 24 Jan 00:46:29 00:50:15 15° 301° (WNW) 00:54:08 435.910
QB50P1 24 Jan 00:47:43 00:49:01 11° 295° (WNW) 00:50:18 145.935-145.965
BEESAT 24 Jan 00:55:23 00:59:24 28° 69° (ENE) 01:03:27 436.000
SWISSCUBE 24 Jan 00:57:13 01:01:26 33° 70° (ENE) 01:05:42 437.505
BEESAT 3 24 Jan 01:02:53 01:05:39 18° 250° (WSW) 01:08:25 437.485
Oscar 19 24 Jan 01:16:57 01:22:08 86° 283° (WNW) 01:27:16 437.125/150
TISAT 1 24 Jan 01:33:12 01:36:05 18° 265° (W) 01:38:59 437.305
AIST 1 24 Jan 01:35:11 01:36:29 11° 275° (W) 01:37:46
CUSAT 1 24 Jan 01:38:20 01:43:12 38° 88° (E) 01:49:19 437.405
YUBILEINY 24 Jan 01:40:06 01:48:19 46° 272° (W) 01:56:27 435.215
ISS 24 Jan 01:43:36 01:45:13 13° 25° (NNE) 01:46:50 145.825
MOZHAYETS 4 24 Jan 01:52:04 01:56:04 31° 71° (ENE) 02:00:06
AUBIESAT-1 24 Jan 01:52:27 01:53:57 12° 63° (ENE) 01:55:25 437.475
BEESAT 2 24 Jan 01:58:02 01:59:14 11° 252° (WSW) 02:00:25 435.950
ITUPSAT 1 24 Jan 02:00:24 02:05:05 59° 259° (W) 02:09:48 437.325
RS-15 24 Jan 02:02:26 02:10:33 19° 338° (NNW) 02:18:48 29.354- 29.394
PHONESAT 2.4 24 Jan 02:03:07 02:05:01 24° 3° (N) 02:06:56 2401.200-2431.200
Gurwin Techsat 1B 24 Jan 02:03:39 02:08:52 59° 287° (WNW) 02:14:05 435.225
KKS-1 24 Jan 02:04:19 02:06:16 13° 65° (ENE) 02:08:13 437.445
ITAMSAT 1 24 Jan 02:09:12 02:13:39 28° 97° (E) 02:18:07 435.822/435.867
Cosmos 2504 24 Jan 02:16:32 02:23:14 42° 271° (W) 02:29:51 435.465 / 435.565
Cosmos 2491 24 Jan 02:27:16 02:35:15 40° 285° (WNW) 02:43:18 435.465 / 435.565
BEESAT 24 Jan 02:33:09 02:37:06 26° 264° (W) 02:41:04 436.000
SWISSCUBE 24 Jan 02:35:35 02:39:14 22° 265° (W) 02:42:55 437.505
AO-7 24 Jan 02:41:36 02:49:25 42° 100° (E) 02:57:08 29.400- 29.500
STARS 24 Jan 02:45:11 02:47:49 16° 66° (ENE) 02:50:28 437.465
CUBESAT XI-V 24 Jan 02:49:38 02:52:58 20° 68° (ENE) 02:56:20 437.345
M-CUBED/EXP-1 PRIME 24 Jan 02:50:34 02:54:54 76° 71° (ENE) 02:58:57 437.505
AIST 2 24 Jan 02:52:05 02:56:10 44° 57° (ENE) 03:00:13 435.215
DANDE 24 Jan 03:10:05 03:14:01 72° 95° (E) 03:19:21 436.750
ISS 24 Jan 03:18:52 03:22:06 88° 29° (NNE) 03:25:21 145.825
CUSAT 1 24 Jan 03:20:34 03:25:15 28° 292° (WNW) 03:31:00 437.405
AUBIESAT-1 24 Jan 03:23:50 03:27:59 53° 254° (WSW) 03:31:53 437.475
MOZHAYETS 4 24 Jan 03:29:43 03:33:13 22° 265° (W) 03:36:45
PHONESAT 2.4 24 Jan 03:36:46 03:38:59 67° 20° (NNE) 03:41:10 2401.200-2431.200
KKS-1 24 Jan 03:37:59 03:42:20 54° 259° (W) 03:46:41 437.445
ITAMSAT 1 24 Jan 03:48:31 03:53:03 31° 291° (WNW) 03:57:34 435.822/435.867
BRITE-PL 24 Jan 04:03:19 04:07:26 31° 96° (E) 04:11:17 437.365/2234.400
STARS 24 Jan 04:19:41 04:23:48 40° 261° (W) 04:27:56 437.465
RS-15 24 Jan 04:22:42 04:30:15 17° 16° (NNE) 04:37:44 29.354- 29.394
CUBESAT XI-V 24 Jan 04:25:41 04:30:02 37° 262° (W) 04:34:26 437.345
Cosmos 2499 24 Jan 04:26:19 04:29:43 14° 66° (ENE) 04:33:04 435.465 / 435.565
AIST 2 24 Jan 04:31:55 04:34:14 14° 251° (WSW) 04:36:33 435.215
GONETS M04 24 Jan 04:33:04 04:38:15 16° 65° (ENE) 04:43:24
AO-7 24 Jan 04:34:26 04:42:02 41° 297° (WNW) 04:49:36 29.400- 29.500
Cubesat XI-IV 24 Jan 04:37:21 04:37:56 10° 90° (E) 04:38:31 437.490
HORYU 2 24 Jan 04:41:02 04:45:04 33° 98° (E) 04:49:06 437.375
O/OREOS (USA 219) 24 Jan 04:42:11 04:46:32 53° 106° (ESE) 04:50:53 437.305
LilacSat-2 24 Jan 04:51:06 04:53:05 14° 93° (E) 04:55:03 437.200
PHONESAT 2.4 24 Jan 05:11:18 05:12:30 13° 213° (SSW) 05:13:40 2401.200-2431.200
NOAA 18 24 Jan 05:14:13 05:16:43 13° 92° (E) 05:19:13 137.9125
GOMX 1 24 Jan 05:23:18 05:27:37 87° 275° (W) 05:31:45 467.674
CUTE-I 24 Jan 05:28:49 05:33:47 38° 98° (E) 05:38:44 437.470
DOVE 4 24 Jan 05:40:34 05:44:36 49° 100° (E) 05:48:38 437.250
BRITE-PL 24 Jan 05:42:13 05:45:41 21° 293° (WNW) 05:48:57 437.365/2234.400
SO-50 24 Jan 05:42:57 05:47:20 39° 114° (ESE) 05:51:41 436.795
NOAA 15 24 Jan 06:06:45 06:12:06 88° 284° (WNW) 06:17:23 137.62
Cubesat XI-IV 24 Jan 06:13:10 06:18:31 81° 285° (WNW) 06:23:53 437.490
STRAND 1 24 Jan 06:15:31 06:20:36 84° 75° (ENE) 06:25:43 437.568
Cosmos 2499 24 Jan 06:16:37 06:23:42 83° 266° (W) 06:30:50 435.465 / 435.565
HORYU 2 24 Jan 06:18:07 06:21:22 20° 292° (WNW) 06:24:37 437.375
LilacSat-2 24 Jan 06:23:55 06:27:28 34° 287° (WNW) 06:30:59 437.200
O/OREOS (USA 219) 24 Jan 06:24:00 06:26:15 14° 303° (WNW) 06:28:30 437.305
GONETS M04 24 Jan 06:27:22 06:36:16 89° 90° (E) 06:45:08
RS-15 24 Jan 06:35:39 06:47:21 45° 48° (NE) 06:58:34 29.354- 29.394
CINEMA 3 24 Jan 06:37:45 06:41:53 47° 100° (E) 06:46:07 145.822/145.860
CUTE 1.7 + AOD 2 24 Jan 06:44:19 06:48:06 30° 96° (E) 06:51:51 437.475
NOAA 18 24 Jan 06:52:22 06:57:48 68° 287° (WNW) 07:03:12 137.9125
CUBEBUG 2 24 Jan 07:04:00 07:07:24 21° 95° (E) 07:10:51 437.445
CUTE-I 24 Jan 07:09:22 07:13:35 24° 293° (WNW) 07:17:47 437.470
COMPASS 1 24 Jan 07:13:27 07:17:02 27° 96° (E) 07:20:35 437.405
CANX-2 24 Jan 07:14:05 07:18:24 83° 102° (ESE) 07:22:41 2200.000
SEEDS 24 Jan 07:16:05 07:20:11 46° 99° (E) 07:24:14 437.485
AAUSAT CUBESAT 2 24 Jan 07:20:20 07:23:46 24° 96° (E) 07:27:09 437.432
DOVE 4 24 Jan 07:20:33 07:21:51 11° 295° (WNW) 07:23:09 437.250
HO-68 24 Jan 07:20:53 07:28:04 72° 104° (ESE) 07:35:11 435.675
UWE-3 24 Jan 07:23:11 07:26:38 22° 95° (E) 07:30:09 435.000/436.395/437.385
SO-50 24 Jan 07:24:12 07:27:55 23° 310° (NW) 07:31:35 436.795
ZACube-1 24 Jan 07:32:36 07:35:24 16° 94° (E) 07:38:12 437.345
PRISM 24 Jan 07:42:49 07:46:31 31° 71° (ENE) 07:50:14 437.425
PCSat 24 Jan 07:46:24 07:50:52 25° 53° (NE) 07:55:19 145.827
NOAA 15 24 Jan 07:50:41 07:51:01 10° 300° (WNW) 07:51:22 137.62
UNISAT 6 24 Jan 07:53:11 07:54:43 12° 65° (ENE) 07:56:16 437.425
Oscar 11 24 Jan 08:00:05 08:03:47 26° 96° (E) 08:07:27 145.826/435.025
TIGRISAT 24 Jan 08:04:13 08:06:35 15° 67° (ENE) 08:08:57 435.000
CINEMA 3 24 Jan 08:16:40 08:18:37 13° 293° (WNW) 08:20:37 145.822/145.860
ANTELSAT 24 Jan 08:19:27 08:22:49 23° 70° (ENE) 08:26:13 437.575/2403.000
CUTE 1.7 + AOD 2 24 Jan 08:20:34 08:23:43 20° 291° (WNW) 08:26:50 437.475
GONETS M04 24 Jan 08:27:06 08:31:46 16° 282° (WNW) 08:36:25
CUBEBUG 2 24 Jan 08:40:07 08:43:59 30° 288° (WNW) 08:47:56 437.445
HUMSAT D 24 Jan 08:41:02 08:43:06 13° 92° (E) 08:45:09 437.325/437.525
FUNcube-1 24 Jan 08:41:37 08:46:05 87° 284° (WNW) 08:50:36 145.935
RS-15 24 Jan 08:48:21 09:00:07 56° 250° (WSW) 09:11:23 29.354- 29.394
COMPASS 1 24 Jan 08:49:13 08:52:23 21° 291° (WNW) 08:55:32 437.405
SEEDS 24 Jan 08:53:24 08:55:26 13° 294° (WNW) 08:57:26 437.485
AAUSAT CUBESAT 2 24 Jan 08:55:48 08:59:06 23° 290° (WNW) 09:02:22 437.432
UWE-3 24 Jan 08:59:11 09:03:03 30° 288° (WNW) 09:06:59 435.000/436.395/437.385
ZACube-1 24 Jan 09:07:37 09:11:46 40° 287° (WNW) 09:15:59 437.345
JAS-2 24 Jan 09:09:40 09:14:23 31° 67° (ENE) 09:19:33 435.910
HO-68 24 Jan 09:10:06 09:15:03 20° 300° (WNW) 09:19:58 435.675
PRISM 24 Jan 09:19:01 09:21:50 18° 265° (W) 09:24:40 437.425
UNISAT 6 24 Jan 09:26:48 09:30:56 52° 260° (W) 09:35:07 437.425
PCSat 24 Jan 09:29:18 09:34:23 42° 250° (WSW) 09:39:26 145.827
DELFI C3 24 Jan 09:32:54 09:36:53 72° 284° (WNW) 09:40:48 145.870
Oscar 11 24 Jan 09:36:18 09:39:45 23° 290° (WNW) 09:43:11 145.826/435.025
TIGRISAT 24 Jan 09:38:55 09:42:54 40° 261° (W) 09:46:55 435.000
ANTELSAT 24 Jan 09:55:58 09:59:25 24° 264° (W) 10:02:54 437.575/2403.000
QB50P1 24 Jan 09:59:35 10:03:10 28° 71° (ENE) 10:06:46 145.935-145.965
POLYITAN 1 24 Jan 10:05:02 10:08:47 33° 72° (ENE) 10:12:32 437.675
QB50P2 24 Jan 10:06:19 10:10:11 37° 72° (ENE) 10:14:03 145.880/145.840
HUMSAT D 24 Jan 10:14:47 10:18:53 45° 286° (WNW) 10:22:59 437.325/437.525
POPSAT HIP 1 24 Jan 10:26:23 10:30:29 59° 75° (ENE) 10:34:36 437.405
DUCHIFAT 1 24 Jan 10:31:27 10:35:32 57° 74° (ENE) 10:39:37 145.980
VELOX 1 24 Jan 10:38:32 10:39:32 11° 92° (E) 10:40:32 145.980
NANOSAT C BR1 24 Jan 10:39:20 10:43:30 81° 76° (ENE) 10:47:40 145.865
ESTCUBE 1 24 Jan 10:44:02 10:48:19 41° 99° (E) 10:52:34 437.505/2401.250
Cosmos 2491 24 Jan 10:45:29 10:50:39 16° 65° (ENE) 10:55:47 435.465 / 435.565
BY70-1 24 Jan 10:46:03 10:49:08 75° 283° (WNW) 10:51:58 436.1900
BUGSAT 1 24 Jan 10:48:14 10:51:43 29° 71° (ENE) 10:55:13 437.445
JAS-2 24 Jan 10:54:49 10:59:27 29° 266° (W) 11:04:29 435.910
Oscar 19 24 Jan 10:55:41 10:57:31 12° 62° (ENE) 10:59:20 437.125/150
CUBEBUG 1 24 Jan 11:10:27 11:14:38 46° 100° (E) 11:18:45 437.445
AO-85 24 Jan 11:26:23 11:30:31 29° 113° (ESE) 11:34:26 145.980
JUGNU 24 Jan 11:34:41 11:37:05 13° 170° (S) 11:39:29 437.505
50 SAT 24 Jan 11:34:56 11:38:13 36° 99° (E) 11:41:28 437.505
QB50P1 24 Jan 11:35:51 11:38:55 20° 265° (W) 11:41:59 145.935-145.965
AISAT 24 Jan 11:38:50 11:43:11 62° 102° (ESE) 11:47:30 437.250
POLYITAN 1 24 Jan 11:41:55 11:44:38 17° 266° (W) 11:47:21 437.675
QB50P2 24 Jan 11:43:38 11:46:05 15° 267° (W) 11:48:32 145.880/145.840
Gurwin Techsat 1B 24 Jan 11:44:03 11:47:44 19° 65° (ENE) 11:51:25 435.225
SPROUT 24 Jan 12:06:21 12:10:38 86° 282° (WNW) 12:14:53 437.525
DANDE 24 Jan 12:10:28 12:12:24 11° 61° (ENE) 12:14:19 436.750
VELOX 1 24 Jan 12:11:59 12:16:18 56° 286° (WNW) 12:20:34 145.980
CUSAT 1 24 Jan 12:14:21 12:21:07 30° 69° (ENE) 12:27:09 437.405
UKube-1 24 Jan 12:18:43 12:22:56 53° 100° (E) 12:27:08 .
AIST 1 24 Jan 12:21:46 12:25:37 31° 91° (E) 12:29:28
ESTCUBE 1 24 Jan 12:21:54 12:24:44 17° 294° (WNW) 12:27:35 437.505/2401.250
BUGSAT 1 24 Jan 12:24:20 12:27:06 18° 265° (W) 12:29:51 437.445
DX 1 24 Jan 12:28:46 12:33:06 81° 284° (WNW) 12:37:25 434.975-435.025
Oscar 19 24 Jan 12:30:54 12:36:06 79° 257° (WSW) 12:41:20 437.125/150
Cosmos 2491 24 Jan 12:39:49 12:48:39 90° 65° (ENE) 12:57:30 435.465 / 435.565
YUBILEINY 24 Jan 12:40:47 12:48:57 44° 88° (E) 12:57:09 435.215
CUBEBUG 1 24 Jan 12:48:19 12:50:28 14° 294° (WNW) 12:52:36 437.445
Cosmos 2504 24 Jan 12:58:03 13:05:12 30° 86° (E) 13:12:00 435.465 / 435.565
AO-85 24 Jan 13:06:53 13:10:53 27° 306° (NW) 13:14:40 145.980
50 SAT 24 Jan 13:09:59 13:11:02 11° 293° (WNW) 13:12:05 437.505
TISAT 1 24 Jan 13:17:55 13:22:06 81° 102° (ESE) 13:26:17 437.305
AISAT 24 Jan 13:18:00 13:19:03 11° 296° (WNW) 13:20:07 437.250
JUGNU 24 Jan 13:21:56 13:25:17 16° 180° (S) 13:28:39 437.505
Gurwin Techsat 1B 24 Jan 13:22:10 13:27:16 48° 260° (W) 13:32:25 435.225
ITAMSAT 1 24 Jan 13:24:34 13:29:10 33° 69° (ENE) 13:33:46 435.822/435.867
AO-7 24 Jan 13:37:31 13:45:20 46° 65° (ENE) 13:53:11 29.400- 29.500
DANDE 24 Jan 13:48:30 13:56:37 59° 78° (ENE) 14:04:39 436.750
CUSAT 1 24 Jan 13:55:48 14:03:20 50° 269° (W) 14:09:50 437.405
UKube-1 24 Jan 13:56:48 13:58:29 12° 295° (WNW) 14:00:08 .
AIST 1 24 Jan 14:00:16 14:03:14 18° 286° (WNW) 14:06:13
ITUPSAT 1 24 Jan 14:03:29 14:08:04 43° 99° (E) 14:12:38 437.325
BEESAT 2 24 Jan 14:08:09 14:10:42 17° 110° (ESE) 14:13:16 435.950
SO-50 24 Jan 14:17:25 14:20:34 18° 48° (NE) 14:23:40 436.795
BEESAT 24 Jan 14:34:46 14:39:36 85° 282° (WNW) 14:44:23 436.000
SWISSCUBE 24 Jan 14:36:57 14:41:45 71° 285° (WNW) 14:46:31 437.505
YUBILEINY 24 Jan 14:37:50 14:45:46 37° 286° (WNW) 14:53:46 435.215
Cosmos 2491 24 Jan 14:39:37 14:44:10 15° 282° (WNW) 14:48:45 435.465 / 435.565
BEESAT 3 24 Jan 14:49:06 14:52:55 57° 302° (WNW) 14:56:48 437.485
Cosmos 2504 24 Jan 14:49:51 14:58:11 51° 281° (W) 15:06:03 435.465 / 435.565
O/OREOS (USA 219) 24 Jan 14:54:37 14:59:06 65° 68° (ENE) 15:03:35 437.305
SRMSAT 24 Jan 15:00:10 15:03:32 15° 175° (S) 15:06:55 437.500
ITAMSAT 1 24 Jan 15:04:24 15:08:36 25° 264° (W) 15:12:52 435.822/435.867
BRITE-PL 24 Jan 15:10:00 15:15:02 34° 70° (ENE) 15:19:58 437.365/2234.400
JUGNU 24 Jan 15:11:14 15:13:29 12° 190° (S) 15:15:44 437.505
MOZHAYETS 4 24 Jan 15:25:56 15:30:36 77° 283° (WNW) 15:35:13
AO-7 24 Jan 15:30:37 15:38:07 37° 261° (W) 15:45:41 29.400- 29.500
KKS-1 24 Jan 15:31:36 15:35:38 33° 98° (E) 15:39:36 437.445
DANDE 24 Jan 15:32:04 15:38:50 29° 274° (W) 15:45:33 436.750
HORYU 2 24 Jan 15:36:53 15:40:17 22° 68° (ENE) 15:43:43 437.375
ITUPSAT 1 24 Jan 15:42:17 15:45:32 18° 294° (WNW) 15:48:46 437.325
BEESAT 2 24 Jan 15:44:35 15:48:11 33° 305° (NW) 15:51:50 435.950
NOAA 15 24 Jan 15:47:49 15:50:14 13° 62° (ENE) 15:52:41 137.62
Cubesat XI-IV 24 Jan 15:55:27 15:58:20 15° 63° (ENE) 16:01:13 437.490
SO-50 24 Jan 15:56:57 16:01:15 46° 245° (WSW) 16:05:29 436.795
M-CUBED/EXP-1 PRIME 24 Jan 16:06:26 16:09:43 83° 106° (ESE) 16:12:58 437.505
STARS 24 Jan 16:11:21 16:15:30 41° 99° (E) 16:19:37 437.465
CUBESAT XI-V 24 Jan 16:24:27 16:29:07 65° 101° (E) 16:33:42 437.345
GOMX 1 24 Jan 16:27:22 16:32:42 75° 76° (ENE) 16:37:48 467.674
NOAA 18 24 Jan 16:37:13 16:41:17 22° 65° (ENE) 16:45:19 137.9125
AUBIESAT-1 24 Jan 16:39:05 16:42:12 40° 291° (WNW) 16:45:19 437.475
DOVE 4 24 Jan 16:42:50 16:47:25 40° 73° (ENE) 16:51:46 437.250
CUTE-I 24 Jan 16:47:58 16:53:02 48° 72° (ENE) 16:58:08 437.470
AIST 2 24 Jan 16:48:08 16:50:51 17° 109° (ESE) 16:53:35 435.215
BRITE-PL 24 Jan 16:48:26 16:53:23 31° 264° (W) 16:58:17 437.365/2234.400
SRMSAT 24 Jan 16:48:38 16:51:55 15° 186° (S) 16:55:14 437.500
Cosmos 2499 24 Jan 17:01:20 17:04:56 14° 80° (E) 17:08:26 435.465 / 435.565
LilacSat-2 24 Jan 17:02:33 17:06:17 73° 77° (ENE) 17:10:05 437.200
KKS-1 24 Jan 17:08:46 17:11:55 19° 293° (WNW) 17:15:04 437.445
HORYU 2 24 Jan 17:12:52 17:16:40 28° 263° (W) 17:20:28 437.375
NOAA 15 24 Jan 17:24:04 17:29:21 73° 258° (WSW) 17:34:40 137.62
GONETS M04 24 Jan 17:31:41 17:37:30 20° 80° (E) 17:43:20
Cubesat XI-IV 24 Jan 17:32:34 17:37:49 64° 258° (WSW) 17:43:06 437.490
CUTE 1.7 + AOD 2 24 Jan 17:35:19 17:37:54 16° 67° (ENE) 17:40:31 437.475
CINEMA 3 24 Jan 17:37:04 17:40:55 31° 72° (ENE) 17:44:38 145.822/145.860
HO-68 24 Jan 17:46:35 17:53:10 41° 67° (ENE) 17:59:47 435.675
STARS 24 Jan 17:48:52 17:51:28 16° 294° (WNW) 17:54:06 437.465
CUBEBUG 2 24 Jan 18:01:30 18:03:04 12° 66° (ENE) 18:04:39 437.445
COMPASS 1 24 Jan 18:02:47 18:04:55 14° 66° (ENE) 18:07:03 437.405
CANX-2 24 Jan 18:04:00 18:07:58 39° 73° (ENE) 18:11:58 2200.000
CUBESAT XI-V 24 Jan 18:04:19 18:05:52 12° 296° (WNW) 18:07:25 437.345
SEEDS 24 Jan 18:05:28 18:08:48 23° 70° (ENE) 18:12:09 437.485
AAUSAT CUBESAT 2 24 Jan 18:09:30 18:11:11 12° 66° (ENE) 18:12:52 437.432
GOMX 1 24 Jan 18:09:30 18:11:06 11° 269° (W) 18:12:42 467.674
NOAA 18 24 Jan 18:16:19 18:21:34 46° 260° (W) 18:26:50 137.9125
UWE-3 24 Jan 18:19:35 18:21:07 12° 66° (ENE) 18:22:40 435.000/436.395/437.385
DOVE 4 24 Jan 18:21:47 18:25:09 18° 266° (W) 18:28:25 437.250
AIST 2 24 Jan 18:25:13 18:29:00 36° 305° (NW) 18:32:52 435.215
STRAND 1 24 Jan 18:28:57 18:33:39 35° 98° (E) 18:38:20 437.568
CUTE-I 24 Jan 18:29:44 18:33:18 18° 267° (W) 18:36:52 437.470
Cosmos 2499 24 Jan 18:48:36 18:57:01 87° 96° (E) 19:04:50 435.465 / 435.565
Oscar 11 24 Jan 18:53:16 18:55:48 15° 67° (ENE) 18:58:21 145.826/435.025
CUTE 1.7 + AOD 2 24 Jan 19:09:26 19:13:23 38° 262° (W) 19:17:23 437.475
CINEMA 3 24 Jan 19:15:00 19:18:03 18° 265° (W) 19:21:03 145.822/145.860
GONETS M04 24 Jan 19:24:37 19:33:17 74° 278° (W) 19:42:05
HO-68 24 Jan 19:34:27 19:40:51 35° 262° (W) 19:47:19 435.675
FUNcube-1 24 Jan 19:34:29 19:38:26 48° 75° (ENE) 19:42:28 145.935
CUBEBUG 2 24 Jan 19:35:14 19:39:15 47° 261° (W) 19:43:15 437.445
COMPASS 1 24 Jan 19:36:03 19:40:02 43° 261° (W) 19:44:04 437.405
SEEDS 24 Jan 19:40:51 19:44:21 25° 264° (W) 19:47:52 437.485
CANX-2 24 Jan 19:41:36 19:43:58 14° 268° (W) 19:46:21 2200.000
AAUSAT CUBESAT 2 24 Jan 19:42:08 19:46:10 49° 261° (W) 19:50:14 437.432
UWE-3 24 Jan 19:53:08 19:57:07 48° 261° (W) 20:01:09 435.000/436.395/437.385
ISS 24 Jan 19:56:42 19:59:56 65° 321° (NW) 20:03:11 145.825
ZACube-1 24 Jan 20:00:22 20:04:29 71° 260° (W) 20:08:39 437.345
AO-85 24 Jan 20:02:03 20:03:03 11° 45° (NE) 20:04:06 145.980
STRAND 1 24 Jan 20:08:30 20:12:36 25° 293° (WNW) 20:16:42 437.568
DELFI C3 24 Jan 20:15:30 20:19:16 41° 74° (ENE) 20:23:04 145.870
